Wind_Speed
39 38 38 37 37 38 40 40 40 37 35 30 29 31 32 33 34 34 33 34 34 34 34 35 36 36 37 38 39 40 41 42 44 45 46 47 48 48 49 50 51 53 54 54
40 39 39 39 39 39 40 39 39 37 34 29 31 33 34 35 35 35 34 34 34 35 35 36 36 37 38 39 40 41 42 44 45 46 47 48 49 49 50 52 53 54 54 55
41 39 40 41 37 38 38 37 37 37 33 31 32 33 34 35 36 35 35 35 35 35 35 36 37 38 39 40 41 42 44 45 46 47 48 49 49 50 52 53 53 53 54 55
42 42 44 38 35 35 36 35 35 35 33 32 31 32 34 35 36 36 36 36 36 36 37 38 39 40 41 41 42 43 44 45 46 47 48 49 50 51 52 52 53 54 55 55
44 44 42 39 35 33 34 33 32 33 32 32 33 34 33 34 35 36 36 36 37 38 39 39 40 40 42 43 43 44 45 45 46 47 48 49 50 51 52 53 54 55 55 56
45 45 43 38 35 34 34 33 30 31 32 33 35 35 32 34 35 36 36 37 38 39 40 40 41 42 43 43 43 44 45 46 47 48 48 49 50 52 53 53 54 55 56 57
45 44 42 38 35 34 35 31 30 31 32 34 35 35 34 34 35 36 37 38 39 40 40 41 42 42 42 43 43 44 45 46 46 47 49 50 51 52 53 54 55 56 56 57
45 45 40 36 35 33 31 31 32 33 33 33 34 35 35 35 36 36 38 39 39 40 41 41 41 42 42 42 43 44 45 45 46 48 49 50 51 52 53 55 56 56 57 58
44 41 38 36 35 34 33 33 34 34 34 34 35 36 36 36 37 37 38 39 39 40 40 40 41 41 41 42 43 44 45 46 47 48 49 50 51 53 54 56 57 57 58 59
46 43 40 38 37 36 35 34 34 34 35 35 36 36 36 37 37 38 38 38 39 39 39 40 40 41 42 42 43 44 45 46 47 48 49 51 52 54 55 56 57 58 60 62
45 42 41 39 37 36 36 36 35 35 35 36 36 36 36 36 37 37 38 38 39 39 39 40 41 42 42 43 44 45 45 46 47 49 50 52 53 54 55 57 59 61 63 66
42 39 39 38 37 37 38 37 37 36 36 36 35 35 35 36 36 37 37 38 38 39 39 40 41 42 43 44 44 45 45 46 48 50 51 53 53 55 56 59 61 64 67 70
40 40 40 39 38 38 38 37 37 36 36 35 35 35 36 36 36 36 36 37 37 38 39 40 41 42 43 43 44 45 46 48 49 51 52 53 55 57 59 61 64 67 70 73
40 40 40 39 38 37 37 36 36 36 36 35 35 35 35 36 36 36 36 37 38 39 39 40 41 42 43 44 45 46 48 49 51 52 54 56 58 60 63 65 67 69 71 74
40 40 39 39 38 37 36 36 35 35 35 35 35 35 35 35 35 36 37 37 38 39 40 41 42 43 44 45 46 48 49 51 53 54 56 59 61 64 66 69 70 71 72 73
40 40 39 39 38 37 36 36 35 35 35 35 35 35 35 35 36 37 38 38 39 40 41 42 43 44 45 47 48 49 51 53 55 57 59 62 64 67 69 71 72 73 73 74
38 38 38 38 38 37 37 36 36 35 35 35 35 35 35 36 36 37 38 39 40 41 42 43 44 46 47 48 50 51 53 55 57 60 62 65 67 69 70 71 72 73 74 74
38 37 38 37 37 37 36 36 35 35 35 35 35 35 36 37 37 38 39 39 41 42 43 45 46 47 48 50 52 54 56 58 60 63 65 67 69 69 71 73 74 74 73 72
37 37 37 36 36 35 34 34 34 34 35 35 35 36 37 37 37 38 39 40 42 43 44 46 47 48 50 52 54 56 59 61 63 65 67 68 69 71 73 74 74 73 71 70
36 35 35 34 34 34 33 34 34 34 35 35 36 36 37 37 38 40 41 42 43 45 46 47 49 50 52 55 57 59 62 64 66 67 68 70 71 73 73 73 72 70 68 67
34 34 34 34 33 33 33 33 33 33 34 35 36 37 38 39 40 41 42 43 45 46 47 49 51 53 55 57 60 62 64 66 67 68 70 71 72 72 72 70 68 66 65 63
33 33 33 33 33 33 33 33 33 34 35 36 37 38 39 40 41 43 44 45 46 48 49 51 53 56 58 60 62 64 65 67 68 70 71 72 71 70 68 66 65 63 62 61
32 31 31 32 32 32 33 34 34 35 36 38 39 40 41 42 43 44 45 47 48 50 51 54 56 59 61 63 64 65 67 68 69 70 70 70 68 67 64 63 62 61 59 57
32 32 32 32 32 33 33 34 35 36 37 38 39 40 41 42 44 45 47 48 50 52 54 56 59 61 63 64 65 66 68 69 69 68 68 66 64 62 61 60 59 57 55 53
32 32 33 33 33 33 34 35 36 37 38 39 40 41 42 43 45 46 48 50 52 54 57 59 61 63 64 65 66 67 67 67 67 66 65 63 61 60 59 58 56 54 51 49
30 31 31 32 33 33 34 35 36 37 38 39 40 41 43 44 46 48 50 52 55 57 59 61 62 63 64 64 65 65 65 65 64 63 61 59 58 58 57 55 53 50 47 44
29 29 30 31 32 33 34 35 35 36 38 39 41 42 44 46 48 50 53 55 57 59 61 62 62 62 62 63 63 63 63 61 60 59 58 57 56 54 53 50 47 44 41 39
Wind_Direction
238 239 241 242 243 245 247 251 255 257 259 258 257 257 255 254 255 257 258 260 262 263 264 267 269 271 273 275 277 280 282 284 286 288 289 291 292 294 295 296 297 298 298 299
239 240 241 242 242 245 248 251 255 256 257 257 256 256 256 257 257 258 259 261 263 264 266 268 271 272 274 277 279 282 284 286 287 289 290 291 293 294 295 297 298 298 299 299
239 240 242 242 244 248 251 253 256 257 259 258 257 257 258 258 258 259 260 262 263 266 267 270 272 274 276 279 282 284 286 287 288 289 290 292 293 295 296 297 298 298 299 300
237 239 242 245 245 248 251 252 253 255 256 257 258 258 258 259 260 261 262 263 265 266 268 271 273 276 278 281 283 285 286 287 289 290 291 293 294 295 296 297 298 299 299 300
238 241 244 244 245 247 250 251 252 255 255 257 258 259 259 261 262 264 265 267 268 270 272 274 277 279 280 282 284 285 287 288 289 291 292 293 294 295 297 298 298 299 300 300
239 242 244 245 246 249 251 251 252 255 255 256 257 259 260 260 262 265 267 269 271 273 275 277 279 281 282 283 285 287 288 289 290 291 292 293 295 296 297 297 298 299 300 301
238 242 244 246 247 248 251 254 254 255 255 256 258 261 262 262 264 267 269 271 273 275 276 279 281 282 283 285 286 288 289 290 291 292 293 294 295 296 297 298 299 300 301 302
239 242 244 248 251 252 253 253 254 254 255 257 260 262 264 265 267 269 271 273 274 276 278 280 282 284 285 286 287 289 290 290 291 292 294 295 295 296 298 299 299 300 301 302
240 245 249 250 252 254 252 253 254 256 257 259 262 264 266 268 270 271 273 274 276 277 279 281 282 284 285 287 288 290 291 292 292 293 294 295 296 297 298 299 300 301 301 302
239 242 247 249 250 252 252 253 255 257 259 261 263 266 268 270 272 274 275 276 277 279 280 281 283 285 286 288 289 290 291 292 293 294 295 296 297 298 299 300 300 301 302 303
240 242 245 248 250 252 253 254 256 258 261 263 265 268 270 272 274 275 276 278 279 280 281 283 285 286 287 289 290 291 292 293 294 295 296 297 298 299 300 300 301 302 303 304
238 241 245 247 250 251 252 254 256 259 262 265 267 269 271 273 275 276 278 279 280 281 283 285 286 287 288 290 291 292 293 294 295 296 297 298 299 300 300 301 302 303 304 305
236 238 242 245 248 250 253 255 257 260 263 265 267 269 272 274 276 278 279 279 281 283 285 286 288 289 290 291 292 293 294 295 296 297 298 299 299 300 301 302 303 304 305 306
236 239 241 244 246 249 252 255 258 261 263 265 268 270 272 275 277 278 280 281 283 285 286 288 289 290 291 292 293 294 295 296 297 298 299 300 300 301 302 303 303 304 305 306
236 239 242 244 246 249 252 256 259 262 264 266 269 271 273 275 277 279 280 283 284 285 287 289 291 292 292 293 294 295 296 297 298 299 299 300 301 301 302 303 304 305 305 306
237 240 242 245 247 250 253 257 260 263 265 267 269 270 273 275 277 280 282 284 285 286 288 290 291 292 293 294 295 296 297 298 299 299 300 300 301 302 303 304 305 306 306 306
236 240 243 246 248 250 254 257 260 263 265 267 269 271 273 276 279 281 283 284 286 288 289 290 291 292 294 295 296 297 298 298 299 300 300 301 302 303 304 305 306 306 307 307
237 240 243 245 248 251 254 258 261 263 265 267 269 272 275 278 280 282 284 286 287 288 290 291 292 293 295 296 297 298 298 299 299 300 301 302 303 304 305 306 306 307 307 308
238 241 244 246 249 253 256 259 261 263 265 268 271 274 276 279 281 283 285 286 287 289 290 292 293 294 295 296 297 298 299 299 300 301 302 303 304 305 306 306 307 307 307 308
238 241 245 248 252 255 257 260 262 264 267 269 272 275 278 280 282 284 285 287 288 290 292 293 294 295 296 297 298 299 299 300 301 302 302 303 304 305 306 306 307 307 307 308
240 243 246 250 253 255 258 261 264 267 268 270 273 276 279 281 283 285 286 288 290 292 293 294 295 296 297 298 299 300 300 301 302 302 303 304 305 306 306 307 307 307 308 308
242 245 248 251 253 255 258 262 265 267 269 272 275 278 280 282 284 285 287 289 291 292 294 295 296 297 298 299 300 300 301 302 303 304 305 305 306 306 307 307 307 307 307 307
244 246 249 251 254 257 260 263 266 268 271 274 277 279 281 283 285 286 288 290 291 293 294 295 296 298 299 300 301 301 302 303 304 305 305 306 306 307 307 307 308 307 307 307
247 249 251 253 256 259 262 265 268 271 273 276 278 280 282 284 286 288 289 291 292 294 295 296 297 299 300 301 302 303 303 304 305 305 306 306 307 307 308 308 309 308 308 307
251 253 254 256 259 261 264 267 269 272 274 277 279 282 284 285 287 289 290 292 293 295 296 298 299 300 301 302 303 304 304 305 306 306 307 307 307 307 308 308 309 309 308 307
250 253 255 258 260 263 265 268 271 273 276 278 281 283 285 287 289 290 292 293 295 296 298 299 300 301 302 303 304 305 305 306 306 307 307 307 307 308 308 308 308 308 307 307
250 252 255 258 261 263 266 269 272 275 277 280 283 286 287 289 291 292 294 295 296 298 299 301 301 302 303 304 305 306 306 307 307 308 308 308 308 308 308 308 308 307 307 307
Height
5650 5654 5658 5660 5663 5665 5667 5670 5673 5677 5679 5684 5684 5685 5685 5686 5688 5689 5691 5692 5693 5693 5693 5693 5693 5693 5692 5691 5690 5689 5687 5685 5682 5680 5676 5673 5670 5666 5662 5658 5654 5649 5644 5639
5641 5645 5648 5650 5654 5656 5659 5662 5664 5667 5671 5676 5675 5675 5676 5678 5679 5681 5682 5683 5684 5684 5685 5685 5684 5684 5683 5682 5680 5678 5676 5674 5671 5668 5665 5662 5658 5654 5650 5646 5641 5636 5631 5626
5632 5636 5637 5640 5647 5650 5652 5655 5658 5659 5665 5666 5665 5667 5668 5669 5670 5672 5673 5674 5674 5675 5675 5675 5675 5674 5673 5671 5670 5668 5665 5663 5660 5657 5653 5650 5646 5642 5638 5633 5628 5623 5618 5613
5622 5626 5627 5638 5640 5642 5644 5647 5650 5652 5655 5656 5657 5658 5659 5660 5661 5663 5664 5664 5665 5665 5665 5665 5665 5664 5662 5661 5659 5657 5654 5651 5648 5645 5641 5638 5634 5630 5625 5621 5616 5610 5605 5599
5612 5615 5620 5627 5631 5634 5636 5639 5642 5643 5646 5647 5648 5649 5651 5652 5652 5653 5654 5655 5655 5655 5655 5655 5654 5653 5651 5650 5647 5645 5642 5639 5636 5633 5629 5626 5622 5617 5613 5608 5603 5597 5592 5586
5603 5606 5610 5620 5625 5626 5629 5631 5636 5635 5637 5638 5638 5640 5643 5643 5643 5644 5644 5645 5645 5645 5645 5644 5643 5642 5640 5638 5636 5634 5631 5628 5624 5621 5617 5613 5609 5605 5600 5595 5589 5584 5578 5572
5594 5598 5603 5611 5615 5618 5622 5626 5627 5627 5628 5629 5630 5632 5633 5634 5634 5635 5635 5635 5635 5635 5634 5633 5632 5630 5629 5627 5624 5622 5619 5616 5612 5609 5605 5601 5596 5592 5587 5581 5576 5571 5565 5559
5585 5589 5598 5603 5606 5610 5614 5615 5616 5617 5619 5620 5621 5622 5623 5624 5625 5626 5626 5626 5625 5624 5623 5622 5621 5619 5617 5615 5613 5610 5607 5604 5600 5596 5592 5588 5583 5578 5573 5568 5562 5556 5550 5544
5579 5586 5591 5594 5598 5601 5603 5605 5607 5608 5610 5612 5613 5614 5614 5615 5616 5616 5616 5615 5615 5614 5612 5611 5610 5608 5606 5604 5601 5598 5595 5591 5588 5584 5579 5575 5570 5565 5560 5554 5548 5542 5536 5530
5570 5576 5580 5584 5588 5591 5593 5595 5597 5599 5601 5602 5603 5604 5605 5606 5606 5606 5605 5605 5604 5603 5602 5600 5598 5597 5595 5592 5589 5586 5583 5579 5575 5571 5566 5562 5557 5551 5545 5539 5533 5527 5520 5514
5561 5567 5571 5575 5579 5582 5584 5586 5588 5590 5591 5593 5594 5595 5596 5596 5596 5595 5595 5594 5593 5592 5591 5589 5587 5585 5583 5580 5577 5574 5570 5567 5562 5558 5553 5549 5543 5537 5531 5525 5517 5511 5504 5496
5554 5560 5563 5567 5570 5572 5574 5576 5578 5580 5582 5583 5584 5585 5586 5586 5586 5585 5585 5584 5583 5582 5580 5578 5576 5574 5571 5568 5565 5562 5558 5554 5549 5545 5540 5535 5529 5524 5517 5510 5503 5494 5486 5477
5545 5549 5552 5556 5559 5562 5565 5567 5569 5571 5573 5574 5575 5576 5576 5576 5576 5575 5574 5573 5572 5571 5569 5567 5565 5562 5559 5556 5553 5549 5545 5541 5536 5531 5526 5520 5515 5509 5503 5497 5488 5478 5469 5459
5535 5539 5543 5547 5551 5554 5556 5558 5560 5562 5563 5565 5565 5566 5566 5566 5566 5565 5564 5563 5561 5560 5558 5555 5553 5550 5547 5544 5540 5536 5532 5527 5522 5517 5512 5506 5499 5493 5486 5479 5473 5465 5454 5442
5526 5530 5535 5538 5542 5545 5547 5549 5551 5553 5554 5555 5556 5556 5556 5556 5555 5555 5553 5552 5550 5548 5546 5544 5541 5538 5535 5531 5527 5523 5518 5513 5508 5503 5497 5490 5484 5477 5469 5461 5453 5446 5437 5427
5517 5521 5525 5529 5533 5535 5538 5540 5542 5543 5544 5545 5546 5546 5546 5546 5545 5544 5543 5541 5539 5537 5535 5532 5529 5526 5522 5518 5514 5510 5505 5499 5494 5488 5482 5475 5467 5459 5451 5443 5434 5426 5417 5407
5508 5512 5516 5520 5523 5526 5529 5531 5532 5534 5535 5535 5536 5536 5536 5536 5535 5533 5532 5530 5528 5525 5523 5520 5517 5513 5509 5505 5501 5496 5491 5485 5479 5472 5465 5458 5450 5442 5433 5424 5415 5406 5397 5387
5500 5504 5507 5511 5514 5517 5519 5521 5523 5524 5525 5525 5526 5526 5526 5525 5524 5522 5520 5518 5516 5513 5510 5507 5504 5500 5496 5491 5486 5481 5476 5470 5463 5456 5449 5441 5432 5423 5414 5405 5396 5387 5378 5369
5491 5495 5499 5502 5505 5507 5510 5511 5513 5514 5515 5515 5516 5515 5515 5514 5512 5511 5509 5507 5504 5501 5498 5494 5491 5486 5482 5477 5472 5466 5460 5454 5447 5439 5431 5423 5414 5405 5396 5386 5377 5367 5358 5350
5483 5487 5490 5493 5496 5498 5500 5502 5503 5504 5504 5505 5505 5504 5504 5503 5501 5499 5497 5495 5492 5489 5485 5482 5477 5473 5468 5463 5457 5451 5444 5437 5429 5421 5413 5404 5396 5386 5377 5367 5358 5348 5340 5331
5475 5479 5482 5484 5487 5489 5491 5492 5493 5493 5494 5494 5494 5493 5492 5491 5489 5487 5485 5482 5479 5476 5472 5468 5463 5458 5453 5447 5441 5434 5427 5419 5411 5403 5394 5385 5376 5367 5358 5348 5339 5330 5322 5314
5467 5470 5473 5476 5478 5479 5481 5482 5482 5483 5483 5483 5483 5482 5481 5479 5477 5475 5472 5469 5466 5462 5458 5454 5449 5443 5438 5431 5425 5417 5409 5401 5393 5384 5375 5366 5357 5348 5339 5330 5322 5313 5305 5297
5459 5462 5464 5466 5468 5470 5471 5472 5472 5472 5472 5472 5471 5470 5469 5467 5465 5463 5460 5456 5453 5449 5444 5439 5434 5428 5421 5415 5407 5399 5391 5383 5374 5365 5356 5347 5338 5330 5321 5313 5305 5296 5288 5281
5450 5453 5455 5457 5458 5460 5461 5461 5462 5462 5461 5460 5460 5458 5457 5455 5452 5449 5446 5443 5439 5434 5429 5424 5418 5411 5404 5397 5389 5381 5373 5364 5355 5347 5338 5329 5321 5312 5304 5296 5288 5281 5273 5266
5441 5444 5446 5447 5449 5450 5450 5451 5451 5451 5450 5449 5448 5446 5445 5442 5440 5437 5433 5429 5424 5420 5414 5408 5401 5394 5387 5379 5371 5363 5355 5346 5337 5329 5320 5312 5304 5296 5289 5281 5273 5266 5259 5253
5433 5435 5436 5438 5439 5440 5440 5440 5440 5440 5439 5438 5436 5434 5432 5429 5426 5423 5419 5414 5409 5404 5398 5391 5384 5377 5369 5361 5353 5345 5337 5328 5320 5311 5303 5295 5288 5280 5273 5266 5259 5252 5246 5240
5424 5426 5427 5428 5429 5430 5430 5430 5430 5429 5428 5426 5425 5422 5420 5417 5413 5409 5405 5399 5394 5388 5381 5374 5367 5359 5352 5344 5336 5328 5320 5311 5303 5295 5287 5280 5272 5265 5258 5251 5245 5239 5234 5229